Year,Month,Day,Hour,Minute,Value (Times are PST for temperature in C)
2016,11,22,00,00,7.70
2016,11,22,00,01,7.70
2016,11,22,00,02,7.70
2016,11,22,00,03,7.80
2016,11,22,00,04,7.80
2016,11,22,00,05,7.80
2016,11,22,00,06,7.80
2016,11,22,00,07,7.90
2016,11,22,00,08,7.90
2016,11,22,00,09,7.90
2016,11,22,00,10,7.90
2016,11,22,00,11,7.90
2016,11,22,00,12,7.90
2016,11,22,00,13,7.90
2016,11,22,00,14,7.90
2016,11,22,00,15,7.90
2016,11,22,00,16,7.90
2016,11,22,00,17,7.90
2016,11,22,00,18,7.90
2016,11,22,00,19,7.90
2016,11,22,00,20,7.90
2016,11,22,00,21,7.90
2016,11,22,00,22,7.90
2016,11,22,00,23,7.90
2016,11,22,00,24,7.90
2016,11,22,00,25,7.90
2016,11,22,00,26,7.90
2016,11,22,00,27,7.90
2016,11,22,00,28,7.90
2016,11,22,00,29,7.90
2016,11,22,00,30,7.90
2016,11,22,00,31,7.90
2016,11,22,00,32,7.90
2016,11,22,00,33,7.90
2016,11,22,00,34,7.90
2016,11,22,00,35,7.90
2016,11,22,00,36,7.90
2016,11,22,00,37,7.90
2016,11,22,00,38,7.90
2016,11,22,00,39,8.10
2016,11,22,00,40,8.10
2016,11,22,00,41,8.10
2016,11,22,00,42,8.10
2016,11,22,00,43,8.10
2016,11,22,00,44,8.10
2016,11,22,00,45,8.10
2016,11,22,00,46,8.20
2016,11,22,00,47,8.20
2016,11,22,00,48,8.30
2016,11,22,00,49,8.40
2016,11,22,00,50,8.40
2016,11,22,00,51,8.40
2016,11,22,00,52,8.40
2016,11,22,00,53,8.40
2016,11,22,00,54,8.60
2016,11,22,00,55,8.60
2016,11,22,00,56,8.60
2016,11,22,00,57,8.60
2016,11,22,00,58,8.60
2016,11,22,00,59,8.60
2016,11,22,01,00,8.60
2016,11,22,01,01,8.60
2016,11,22,01,02,8.70
2016,11,22,01,03,8.70
2016,11,22,01,04,8.70
2016,11,22,01,05,8.70
2016,11,22,01,06,8.70
2016,11,22,01,07,8.80
2016,11,22,01,08,8.80
2016,11,22,01,09,8.80
2016,11,22,01,10,8.80
2016,11,22,01,11,8.80
2016,11,22,01,12,8.80
2016,11,22,01,13,8.90
2016,11,22,01,14,8.90
2016,11,22,01,15,8.90
2016,11,22,01,16,8.90
2016,11,22,01,17,8.90
2016,11,22,01,18,8.90
2016,11,22,01,19,8.90
2016,11,22,01,20,8.90
2016,11,22,01,21,8.90
2016,11,22,01,22,8.90
2016,11,22,01,23,8.90
2016,11,22,01,24,8.90
2016,11,22,01,25,8.90
2016,11,22,01,26,8.90
2016,11,22,01,27,8.90
2016,11,22,01,28,8.90
2016,11,22,01,29,8.90
2016,11,22,01,30,8.90
2016,11,22,01,31,8.90
2016,11,22,01,32,8.90
2016,11,22,01,33,8.90
2016,11,22,01,34,8.90
2016,11,22,01,35,8.90
2016,11,22,01,36,8.90
2016,11,22,01,37,8.90
2016,11,22,01,38,8.90
2016,11,22,01,39,8.90
2016,11,22,01,40,8.90
2016,11,22,01,41,8.90
2016,11,22,01,42,8.90
2016,11,22,01,43,8.90
2016,11,22,01,44,8.90
2016,11,22,01,45,8.90
2016,11,22,01,46,8.90
2016,11,22,01,47,8.90
2016,11,22,01,48,8.90
2016,11,22,01,49,8.90
2016,11,22,01,50,8.90
2016,11,22,01,51,8.90
2016,11,22,01,52,8.90
2016,11,22,01,53,8.90
2016,11,22,01,54,8.90
2016,11,22,01,55,8.90
2016,11,22,01,56,8.90
2016,11,22,01,57,8.80
2016,11,22,01,58,8.80
2016,11,22,01,59,8.80
2016,11,22,02,00,8.80
2016,11,22,02,01,8.80
2016,11,22,02,02,8.80
2016,11,22,02,03,8.80
2016,11,22,02,04,8.80
2016,11,22,02,05,8.80
2016,11,22,02,06,8.80
2016,11,22,02,07,8.80
2016,11,22,02,08,8.80
2016,11,22,02,09,8.80
2016,11,22,02,10,8.70
2016,11,22,02,11,8.70
2016,11,22,02,12,8.70
2016,11,22,02,13,8.80
2016,11,22,02,14,8.80
2016,11,22,02,15,8.80
2016,11,22,02,16,8.70
2016,11,22,02,17,8.70
2016,11,22,02,18,8.70
2016,11,22,02,19,8.70
2016,11,22,02,20,8.70
2016,11,22,02,21,8.70
2016,11,22,02,22,8.70
2016,11,22,02,23,8.70
2016,11,22,02,24,8.70
2016,11,22,02,25,8.80
2016,11,22,02,26,8.80
2016,11,22,02,27,8.80
2016,11,22,02,28,8.80
2016,11,22,02,29,8.80
2016,11,22,02,30,8.80
2016,11,22,02,31,8.80
2016,11,22,02,32,8.80
2016,11,22,02,33,8.80
2016,11,22,02,34,8.80
2016,11,22,02,35,8.80
2016,11,22,02,36,8.80
2016,11,22,02,38,8.80
2016,11,22,02,40,8.80
2016,11,22,02,41,8.80
2016,11,22,02,43,8.80
2016,11,22,02,45,8.90
2016,11,22,02,46,8.90
2016,11,22,02,47,8.90
2016,11,22,02,48,8.90
2016,11,22,02,50,8.90
2016,11,22,02,52,8.90
2016,11,22,02,53,8.90
2016,11,22,02,55,8.90
2016,11,22,02,57,8.90
2016,11,22,02,58,8.90
2016,11,22,02,59,8.90
2016,11,22,03,00,8.90
2016,11,22,03,02,8.90
2016,11,22,03,03,8.90
2016,11,22,03,04,8.90
2016,11,22,03,05,8.90
2016,11,22,03,07,8.80
2016,11,22,03,08,8.80
2016,11,22,03,09,8.80
2016,11,22,03,10,8.80
2016,11,22,03,12,8.80
2016,11,22,03,13,8.80
2016,11,22,03,14,8.80
2016,11,22,03,15,8.80
2016,11,22,03,17,8.90
2016,11,22,03,18,8.90
2016,11,22,03,19,8.90
2016,11,22,03,20,8.90
2016,11,22,03,22,8.90
2016,11,22,03,23,8.90
2016,11,22,03,24,8.90
2016,11,22,03,25,8.90
2016,11,22,03,27,8.90
2016,11,22,03,29,8.90
2016,11,22,03,30,8.90
2016,11,22,03,31,8.90
2016,11,22,03,32,8.90
2016,11,22,03,34,8.90
2016,11,22,03,35,8.90
2016,11,22,03,36,8.90
2016,11,22,03,37,8.90
2016,11,22,03,39,8.90
2016,11,22,03,40,8.90
2016,11,22,03,41,8.90
2016,11,22,03,42,8.90
2016,11,22,03,44,8.90
2016,11,22,03,45,8.90
2016,11,22,03,46,8.90
2016,11,22,03,47,9.10
2016,11,22,03,48,9.10
2016,11,22,03,49,9.10
2016,11,22,03,50,9.10
2016,11,22,03,51,9.10
2016,11,22,03,53,9.10
2016,11,22,03,54,9.10
2016,11,22,03,55,9.10
2016,11,22,03,56,9.10
2016,11,22,03,57,9.10
2016,11,22,03,58,9.10
2016,11,22,04,00,9.10
2016,11,22,04,01,9.10
2016,11,22,04,02,9.10
2016,11,22,04,03,9.10
2016,11,22,04,04,9.10
2016,11,22,04,05,9.10
2016,11,22,04,07,9.10
2016,11,22,04,08,9.10
2016,11,22,04,09,9.10
2016,11,22,04,10,9.10
2016,11,22,04,11,9.10
2016,11,22,04,12,9.10
2016,11,22,04,13,9.10
2016,11,22,04,14,9.10
2016,11,22,04,15,9.10
2016,11,22,04,16,9.10
2016,11,22,04,17,9.10
2016,11,22,04,18,9.10
2016,11,22,04,19,9.10
2016,11,22,04,20,9.10
2016,11,22,04,21,9.10
2016,11,22,04,22,9.10
2016,11,22,04,23,9.10
2016,11,22,04,24,9.10
2016,11,22,04,26,9.10
2016,11,22,04,27,9.10
2016,11,22,04,28,9.10
2016,11,22,04,29,9.10
2016,11,22,04,30,9.10
2016,11,22,04,31,9.10
2016,11,22,04,32,9.10
2016,11,22,04,33,9.10
2016,11,22,04,34,9.10
2016,11,22,04,35,9.10
2016,11,22,04,36,8.90
2016,11,22,04,38,8.90
2016,11,22,04,39,8.90
2016,11,22,04,40,8.90
2016,11,22,04,41,8.90
2016,11,22,04,42,8.80
2016,11,22,04,43,8.80
2016,11,22,04,44,8.80
2016,11,22,04,45,8.80
2016,11,22,04,46,8.80
2016,11,22,04,47,8.70
2016,11,22,04,48,8.70
2016,11,22,04,50,8.70
2016,11,22,04,51,8.70
2016,11,22,04,52,8.70
2016,11,22,04,53,8.70
2016,11,22,04,55,8.70
2016,11,22,04,56,8.60
2016,11,22,04,57,8.60
2016,11,22,04,58,8.60
2016,11,22,04,59,8.60
2016,11,22,05,00,8.60
2016,11,22,05,02,8.60
2016,11,22,05,03,8.60
2016,11,22,05,04,8.60
2016,11,22,05,05,8.60
2016,11,22,05,07,8.40
2016,11,22,05,08,8.40
2016,11,22,05,09,8.40
2016,11,22,05,10,8.40
2016,11,22,05,11,8.40
2016,11,22,05,12,8.40
2016,11,22,05,14,8.30
2016,11,22,05,15,8.30
2016,11,22,05,16,8.20
2016,11,22,05,17,8.20
2016,11,22,05,18,8.10
2016,11,22,05,19,8.10
2016,11,22,05,21,8.10
2016,11,22,05,22,8.10
2016,11,22,05,23,8.10
2016,11,22,05,24,8.10
2016,11,22,05,25,8.10
2016,11,22,05,26,8.10
2016,11,22,05,27,8.10
2016,11,22,05,28,8.10
2016,11,22,05,29,8.10
2016,11,22,05,30,7.90
2016,11,22,05,31,7.90
2016,11,22,05,33,7.90
2016,11,22,05,34,7.90
2016,11,22,05,35,7.90
2016,11,22,05,36,7.90
2016,11,22,05,37,7.90
2016,11,22,05,38,7.90
2016,11,22,05,39,7.90
2016,11,22,05,40,7.90
2016,11,22,05,41,7.90
2016,11,22,05,42,7.90
2016,11,22,05,43,7.90
2016,11,22,05,45,7.90
2016,11,22,05,46,7.90
2016,11,22,05,47,7.90
2016,11,22,05,48,7.80
2016,11,22,05,49,7.80
2016,11,22,05,50,7.80
2016,11,22,05,51,7.80
2016,11,22,05,52,7.80
2016,11,22,05,53,7.80
2016,11,22,05,54,7.80
2016,11,22,05,55,7.80
2016,11,22,05,56,7.70
2016,11,22,05,57,7.70
2016,11,22,05,58,7.70
2016,11,22,05,59,7.70
2016,11,22,06,00,7.70
2016,11,22,06,01,7.70
2016,11,22,06,02,7.70
2016,11,22,06,03,7.70
2016,11,22,06,04,7.70
2016,11,22,06,06,7.70
2016,11,22,06,07,7.70
2016,11,22,06,08,7.70
2016,11,22,06,09,7.70
2016,11,22,06,10,7.70
2016,11,22,06,11,7.70
2016,11,22,06,12,7.70
2016,11,22,06,13,7.70
2016,11,22,06,14,7.70
2016,11,22,06,15,7.70
2016,11,22,06,16,7.70
2016,11,22,06,17,7.70
2016,11,22,06,18,7.70
2016,11,22,06,19,7.70
2016,11,22,06,20,7.70
2016,11,22,06,21,7.70
2016,11,22,06,22,7.70
2016,11,22,06,23,7.70
2016,11,22,06,24,7.70
2016,11,22,06,25,7.70
2016,11,22,06,26,7.70
2016,11,22,06,27,7.70
2016,11,22,06,28,7.70
2016,11,22,06,29,7.70
2016,11,22,06,30,7.70
2016,11,22,06,31,7.70
2016,11,22,06,32,7.70
2016,11,22,06,33,7.70
2016,11,22,06,34,7.70
2016,11,22,06,35,7.70
2016,11,22,06,36,7.70
2016,11,22,06,37,7.70
2016,11,22,06,38,7.70
2016,11,22,06,39,7.70
2016,11,22,06,40,7.70
2016,11,22,06,41,7.70
2016,11,22,06,42,7.70
